Tracking 29487 objects as of 11-Sep-2024
HD Live streaming from Space Station
objects crossing your sky now

TITAN 3C TRANSTAGE DEB

Track TITAN 3C TRANSTAGE DEB now!
10-day predictions


NORAD ID: 2799
Int'l Code: 1965-082KX
Perigee: 640.7 km
Apogee: 689.6 km
Inclination: 32.1 °
Period: 97.9 minutes
Semi major axis: 7036 km
RCS: 0.0572 m2 (small)
Launch date: October 15, 1965
Source: United States (US)
Launch site: AIR FORCE EASTERN TEST RANGE (AFETR)

Note: This is SATELLITE DEBRIS
Your satellite tracking list
Your tracking list is empty




NASA's NSSDC Master Catalog

Two Line Element Set (TLE):
1 02799U 65082KX  24254.74340487  .00005299  00000-0  83438-3 0  9996
2 02799  32.0548 263.3952 0034811 112.2441  53.9110 14.70958095 61063
Source of the keplerian elements: AFSPC